[[{"header":{"parameterUnit":"m.s-1","parameterCategory":1,"la1":30.2991,"la2":30.254,"lo1":-89.0895,"lo2":-89.0444,"dy":0.0017,"dx":0.0017,"nx":28,"ny":28,"refTime":"2025-09-17T09:00:00:Z","depth":0,"parameterNumber":2,"parameterNumberName":"U-component_of_WINDS"},"data":[0,0,0,0,0,0,0,0,0,0,0,0,0,0,0,0,0,0,0,0,0,0,0,0,0,0,0,0,0,0,0,0,0,0,0,0,0,0,0,0,0,0,0,0,0,0,0,0,0,0,0,0,0,0,0,0,0,0,-1.1343,-1.1343,0,-1.1353,-1.1353,-1.1353,-1.1323,-1.1322,-1.1321,-1.1321,-1.1332,-1.1334,-1.1335,0,0,0,0,0,0,0,0,0,0,0,0,0,-1.13,-1.1301,-1.1343,-1.1343,-1.1343,-1.1353,-1.1353,-1.1353,-1.1323,-1.1322,-1.1321,-1.132,-1.1332,-1.1333,-1.1335,0,0,0,0,0,0,0,0,0,0,0,0,0,-1.1315,-1.1301,-1.1343,-1.1329,-1.1328,-1.1353,-1.1353,-1.1353,-1.1324,-1.1322,-1.1321,-1.132,-1.1332,-1.1333,-1.1335,-1.1374,0,0,-1.134,-1.1341,0,0,0,0,0,0,0,0,-1.1314,-1.1317,-1.1331,-1.133,-1.1329,-1.1335,-1.1342,-1.136,-1.1324,-1.1326,-1.1321,-1.1319,-1.1335,-1.1336,-1.1341,-1.1374,-1.1375,-1.1341,-1.1342,-1.1342,-1.1343,0,0,0,0,0,0,0,-1.1313,-1.1316,-1.1347,-1.1332,-1.133,-1.1324,-1.1324,-1.1346,-1.1338,-1.1325,-1.1323,-1.1325,-1.1334,-1.1339,-1.1341,-1.1375,-1.1341,-1.1342,-1.1343,-1.1344,-1.1441,-1.1442,0,0,0,0,0,0,-1.1314,-1.1316,-1.1347,-1.1347,-1.1318,-1.1325,-1.1326,-1.1335,-1.1337,-1.1336,-1.1326,-1.1323,-1.1337,-1.1339,-1.1341,-1.1387,-1.1342,-1.1344,-1.1345,-1.1439,-1.1441,-1.1443,0,0,0,0,0,0,-1.1313,-1.1317,-1.1346,-1.1331,-1.1334,-1.1328,-1.1338,-1.1336,-1.1341,-1.1338,-1.1336,-1.1333,-1.1336,-1.1339,-1.1366,-1.1387,-1.1345,-1.1346,-1.1438,-1.144,-1.1442,-1.1479,0,0,0,0,0,0,-1.1312,-1.1317,-1.1331,-1.1331,-1.1335,-1.137,-1.1339,-1.1337,-1.1344,-1.1341,-1.1344,-1.1343,-1.1335,-1.1363,-1.1368,-1.1389,-1.1348,-1.1436,-1.1439,-1.1441,-1.1476,-1.1482,-1.1488,0,0,0,0,0,-1.1311,-1.1341,-1.1332,-1.1336,-1.1352,-1.1371,-1.1374,-1.1363,-1.1346,-1.1361,-1.1358,-1.1343,-1.1384,-1.1366,-1.1371,-1.1393,-1.1434,-1.1438,-1.1441,-1.1473,-1.1481,-1.1488,0,0,0,0,0,0,-1.1344,-1.1341,-1.1331,-1.1362,-1.1367,-1.1366,-1.1384,-1.1372,-1.1382,-1.1379,-1.1366,-1.1367,-1.1396,-1.1397,-1.1378,-1.1431,-1.1406,-1.1411,-1.1429,-1.1437,-1.1442,-1.1442,-1.1349,0,0,0,0,0,-1.1355,-1.137,-1.1367,-1.1395,-1.1398,-1.1391,-1.1399,-1.139,-1.1395,-1.1397,-1.1397,-1.1403,-1.1417,-1.1427,-1.144,-1.1476,-1.1476,-1.1493,-1.1499,-1.1504,-1.1508,-1.1528,-1.1536,-1.1454,-1.1454,-1.1454,0,0,-1.1378,-1.1378,-1.1389,-1.1402,-1.1405,-1.1421,-1.1393,-1.1411,-1.1424,-1.14,-1.1426,-1.1426,-1.1432,-1.1463,-1.1477,-1.1465,-1.1531,-1.1508,-1.1512,-1.1514,-1.1532,-1.154,-1.1547,-1.1456,-1.1456,-1.1456,0,0,-1.1428,-1.143,-1.1454,-1.1457,-1.1462,-1.1457,-1.1462,-1.1464,-1.1463,-1.1488,-1.1471,-1.1485,-1.151,-1.1515,-1.1521,-1.1574,-1.156,-1.1578,-1.1609,-1.1629,-1.1635,-1.1641,-1.166,-1.1667,-1.1582,-1.1582,-1.1582,0,-1.1457,-1.148,-1.1468,-1.1487,-1.1494,-1.1473,-1.1498,-1.1502,-1.1511,-1.1516,-1.1502,-1.1533,-1.1535,-1.1568,-1.1581,-1.1586,-1.1593,-1.1578,-1.1635,-1.1641,-1.1646,-1.1664,-1.1672,-1.1585,-1.1584,-1.1584,-1.1584,0,-1.1515,-1.1532,-1.1551,-1.1559,-1.1568,-1.159,-1.1582,-1.1592,-1.1583,-1.158,-1.1606,-1.1608,-1.1621,-1.1628,-1.162,-1.1661,-1.1653,-1.1637,-1.1612,-1.1656,-1.1673,-1.168,-1.1588,-1.1587,-1.1586,-1.1586,0,0,-1.1587,-1.1588,-1.1596,-1.16,-1.1603,-1.1616,-1.1638,-1.165,-1.1659,-1.1666,-1.1685,-1.1706,-1.1692,-1.1698,-1.169,-1.1707,-1.175,-1.1689,-1.1689,-1.1701,-1.1795,-1.1808,-1.1816,-1.1741,-1.1742,-1.1743,-1.1795,0,-1.1638,-1.1674,-1.1663,-1.17,-1.1715,-1.1696,-1.1714,-1.1719,-1.1717,-1.173,-1.1728,-1.1743,-1.1723,-1.1727,-1.1743,-1.1741,-1.1768,-1.1737,-1.1758,-1.1759,-1.1758,-1.1825,-1.1838,-1.1887,-1.1802,-1.1803,-1.1804,0,-1.1701,-1.171,-1.1748,-1.1749,-1.1755,-1.1772,-1.1783,-1.1796,-1.1801,-1.1798,-1.1806,-1.1794,-1.1816,-1.1791,-1.1821,-1.18,-1.1808,-1.1809,-1.181,-1.1812,-1.1784,-1.1829,-1.1902,-1.191,-1.1814,-1.1813,-1.1812,0,-1.1751,-1.1772,-1.1798,-1.1802,-1.1803,-1.1816,-1.1818,-1.1821,-1.1829,-1.1839,-1.1844,-1.1857,-1.1864,-1.1874,-1.1866,-1.1848,-1.1898,-1.1872,-1.1897,-1.1897,-1.1909,-1.1908,-1.1985,-1.1913,-1.1913,-1.1913,-1.1913,0,-1.1809,-1.1833,-1.182,-1.1836,-1.1863,-1.1851,-1.1878,-1.1877,-1.1881,-1.1897,-1.188,-1.1896,-1.1884,-1.1899,-1.1893,-1.192,-1.1923,-1.1922,-1.192,-1.1924,-1.1924,-1.193,-1.1926,-1.1915,-1.1914,-1.1914,-1.1914,0,-1.1869,-1.1862,-1.1888,-1.1888,-1.1888,-1.1908,-1.1908,-1.1923,-1.1919,-1.194,-1.1944,-1.1938,-1.1955,-1.1948,-1.1965,-1.1962,-1.1996,-1.1989,-1.1994,-1.1993,-1.2018,-1.2017,-1.2102,-1.2113,-1.2033,-1.2034,-1.2034,0,-1.1907,-1.1925,-1.1926,-1.1935,-1.1938,-1.1953,-1.1961,-1.195,-1.1959,-1.1966,-1.1981,-1.1996,-1.2007,-1.2035,-1.2033,-1.2046,-1.204,-1.2069,-1.2042,-1.2046,-1.2042,-1.2041,-1.2043,-1.2075,-1.2076,-1.2077,-1.2077,0,-1.1975,-1.197,-1.1982,-1.1993,-1.2003,-1.2011,-1.2018,-1.2027,-1.2016,-1.2027,-1.2044,-1.2053,-1.207,-1.2086,-1.2098,-1.21,-1.2088,-1.2086,-1.2092,-1.2097,-1.2099,-1.2099,-1.201,-1.2084,-1.2083,-1.2083,-1.2082,-1.2082,-1.2026,-1.2041,-1.2044,-1.2058,-1.2062,-1.2069,-1.2083,-1.2081,-1.2094,-1.2107,-1.21,-1.2119,-1.2124,-1.2139,-1.2143,-1.2159,-1.2148,-1.2157,-1.216,-1.2162,-1.2166,-1.2096,-1.2161,-1.2161,-1.216,-1.216,-1.216,0,-1.2094,-1.2095,-1.2108,-1.2118,-1.2129,-1.2115,-1.2121,-1.2132,-1.2149,-1.2155,-1.2166,-1.2185,-1.22,-1.2199,-1.2213,-1.2226,-1.222,-1.223,-1.2229,-1.223,-1.2175,-1.2168,-1.2234,-1.2234,-1.2234,-1.2234,-1.2234,-1.2234,-1.2131,-1.2156,-1.2152,-1.2179,-1.218,-1.2198,-1.2204,-1.221,-1.2214,-1.2236,-1.2248,-1.2247,-1.225,-1.2264,-1.2277,-1.2277,-1.2283,-1.2295,-1.2293,-1.2241,-1.2234,-1.2227,-1.2221,-1.2296,-1.2296,-1.2347,-1.2347,-1.2347]},{"header":{"parameterUnit":"m.s-1","parameterCategory":1,"la1":30.2991,"la2":30.254,"lo1":-89.0895,"lo2":-89.0444,"dy":0.0017,"dx":0.0017,"nx":28,"ny":28,"refTime":"2025-09-17T09:00:00:Z","depth":0,"parameterNumber":3,"parameterNumberName":"V-component_of_WINDS"},"data":[0,0,0,0,0,0,0,0,0,0,0,0,0,0,0,0,0,0,0,0,0,0,0,0,0,0,0,0,0,0,0,0,0,0,0,0,0,0,0,0,0,0,0,0,0,0,0,0,0,0,0,0,0,0,0,0,0,0,4.0785,4.0785,0,4.0782,4.0782,4.0782,4.0744,4.0743,4.0742,4.0742,4.0738,4.0738,4.0739,0,0,0,0,0,0,0,0,0,0,0,0,0,4.0761,4.0762,4.0785,4.0785,4.0785,4.0782,4.0782,4.0782,4.0744,4.0743,4.0742,4.0741,4.0737,4.0738,4.0739,0,0,0,0,0,0,0,0,0,0,0,0,0,4.0766,4.0762,4.0785,4.0766,4.0765,4.0782,4.0782,4.0781,4.0745,4.0743,4.0742,4.0741,4.0737,4.0738,4.0739,4.0774,0,0,4.0743,4.0743,0,0,0,0,0,0,0,0,4.0766,4.0767,4.0769,4.0768,4.0766,4.0762,4.0771,4.0779,4.0745,4.0752,4.0742,4.074,4.0747,4.0747,4.0749,4.0774,4.0774,4.0743,4.0743,4.0744,4.0744,0,0,0,0,0,0,0,4.0765,4.0767,4.0784,4.0769,4.0767,4.0758,4.0757,4.0773,4.0757,4.0752,4.0749,4.0749,4.0746,4.0748,4.0749,4.0774,4.0743,4.0744,4.0744,4.0745,4.0826,4.0827,0,0,0,0,0,0,4.0768,4.0767,4.0784,4.0784,4.0762,4.076,4.0759,4.0765,4.0757,4.0755,4.075,4.0747,4.0747,4.0748,4.0749,4.0788,4.0744,4.0745,4.0746,4.0824,4.0826,4.0828,0,0,0,0,0,0,4.0767,4.0769,4.0784,4.0774,4.0776,4.0762,4.0769,4.0765,4.0768,4.0756,4.0753,4.0756,4.0746,4.0747,4.0768,4.0787,4.0746,4.0747,4.0823,4.0825,4.0827,4.0867,0,0,0,0,0,0,4.0767,4.077,4.0783,4.0775,4.0776,4.0803,4.077,4.0766,4.077,4.0766,4.076,4.0758,4.0745,4.0766,4.0769,4.0788,4.0747,4.0821,4.0824,4.0826,4.0864,4.0871,4.0876,0,0,0,0,0,4.0766,4.0794,4.0783,4.0786,4.0792,4.0805,4.0805,4.079,4.0772,4.0785,4.0777,4.0758,4.0785,4.0769,4.0771,4.0791,4.0819,4.0823,4.0826,4.0861,4.0869,4.0876,0,0,0,0,0,0,4.0804,4.0793,4.0781,4.0808,4.0807,4.0798,4.0814,4.0799,4.0803,4.08,4.078,4.0779,4.0803,4.0799,4.0781,4.0824,4.0799,4.0803,4.0825,4.0833,4.0838,4.0838,4.0748,0,0,0,0,0,4.0816,4.0827,4.0816,4.0841,4.0842,4.0828,4.0833,4.0821,4.082,4.0819,4.0813,4.0813,4.0821,4.0827,4.0834,4.0864,4.0862,4.0879,4.0885,4.089,4.0893,4.0908,4.0915,4.0839,4.0839,4.0839,0,0,4.084,4.0835,4.0843,4.0849,4.0847,4.0859,4.0828,4.0842,4.085,4.0822,4.084,4.0836,4.0835,4.086,4.0871,4.0858,4.0914,4.0895,4.0899,4.0899,4.0912,4.092,4.0926,4.0841,4.084,4.084,0,0,4.0889,4.0887,4.0907,4.0906,4.0904,4.0895,4.09,4.0893,4.0889,4.0908,4.0887,4.0897,4.0911,4.0911,4.0913,4.0962,4.0945,4.0966,4.0996,4.1011,4.1017,4.1022,4.1038,4.1045,4.0969,4.0969,4.0969,0,4.0919,4.0935,4.0919,4.0934,4.0936,4.0912,4.0931,4.0932,4.0932,4.0935,4.092,4.0938,4.0936,4.096,4.0972,4.0975,4.0979,4.0965,4.1017,4.1022,4.1027,4.1042,4.1049,4.0971,4.0971,4.0971,4.0971,0,4.0971,4.0983,4.0999,4.1,4.1005,4.1023,4.1009,4.1016,4.1004,4.0996,4.1016,4.1012,4.1017,4.1023,4.1011,4.1045,4.1037,4.1021,4.0995,4.1037,4.1051,4.1057,4.0975,4.0974,4.0973,4.0973,0,0,4.1042,4.1035,4.1041,4.1041,4.1037,4.1046,4.1063,4.1068,4.1074,4.1076,4.1088,4.1102,4.1086,4.1088,4.1077,4.109,4.1128,4.1071,4.1071,4.1081,4.1164,4.1175,4.1182,4.1117,4.1119,4.1119,4.1164,0,4.1088,4.1115,4.1101,4.113,4.114,4.1117,4.1132,4.1131,4.1125,4.1133,4.1126,4.1135,4.1115,4.1116,4.1128,4.1121,4.1144,4.1118,4.1128,4.1128,4.1127,4.119,4.1202,4.1243,4.1169,4.117,4.1171,0,4.1145,4.1149,4.1178,4.1172,4.1176,4.1189,4.1193,4.1201,4.12,4.1194,4.1197,4.1183,4.1198,4.1174,4.1195,4.1177,4.1181,4.1178,4.1179,4.1178,4.1151,4.1189,4.1257,4.1262,4.118,4.1179,4.1178,0,4.1192,4.1205,4.1224,4.1224,4.1219,4.1228,4.1226,4.1224,4.1228,4.1232,4.1234,4.124,4.1242,4.1247,4.1234,4.1218,4.1256,4.1231,4.1251,4.1251,4.1258,4.1258,4.1326,4.1264,4.1264,4.1264,4.1264,0,4.1243,4.1262,4.1244,4.1256,4.1276,4.1261,4.1281,4.1277,4.1275,4.1285,4.1267,4.1277,4.126,4.1269,4.1259,4.1277,4.1279,4.1274,4.1271,4.1275,4.1275,4.1275,4.1272,4.1266,4.1265,4.1265,4.1265,0,4.1298,4.1287,4.1306,4.13,4.1298,4.1313,4.1308,4.1318,4.1311,4.1324,4.1326,4.1315,4.1324,4.1313,4.1321,4.1314,4.1338,4.1332,4.1338,4.1336,4.1355,4.1353,4.1425,4.1433,4.1368,4.1368,4.1369,0,4.133,4.1344,4.1339,4.1344,4.1343,4.1353,4.1357,4.1343,4.1347,4.1348,4.1358,4.1365,4.137,4.1386,4.1378,4.1384,4.1376,4.1401,4.1377,4.138,4.1375,4.1373,4.1374,4.1406,4.1406,4.1407,4.1408,0,4.1388,4.1383,4.1389,4.1394,4.1399,4.1403,4.1404,4.141,4.1395,4.1402,4.141,4.1414,4.1423,4.143,4.1434,4.1432,4.1417,4.1416,4.142,4.1423,4.1425,4.1423,4.135,4.1413,4.1413,4.1412,4.1412,4.1412,4.1432,4.1442,4.144,4.1448,4.1448,4.145,4.146,4.1454,4.1461,4.1466,4.1458,4.1469,4.1468,4.1472,4.1471,4.148,4.1469,4.1476,4.1477,4.1479,4.1481,4.1426,4.1481,4.1481,4.148,4.148,4.148,0,4.1487,4.1485,4.1493,4.1496,4.1502,4.1488,4.149,4.1496,4.1505,4.1506,4.1511,4.1521,4.1528,4.1522,4.1528,4.1536,4.1529,4.1538,4.1536,4.1535,4.1491,4.1486,4.1543,4.1543,4.1543,4.1543,4.1543,4.1543,4.1517,4.1534,4.1528,4.1545,4.1543,4.1553,4.1555,4.1557,4.1557,4.1569,4.1575,4.1571,4.1568,4.1574,4.158,4.1578,4.158,4.1591,4.1586,4.1545,4.1539,4.1533,4.1527,4.1592,4.1592,4.1629,4.163,4.163]}]]